Showing default

KUIPER-00031, 63744

Orbit data source: Space-Track

KUIPER-00031, 63744 is a payload satellite owned by Kuiper Systems (US) in LEO that was launched on Mon, 28 Apr 2025 UTC via an ATLAS V 551 launch vehicle from the Air Force Eastern Test Range (AFETR). Payload-class satellites include a variety of spacecraft equipped with specific instruments for various scientific and technological missions. These include communications satellites like Starlink; space stations such as the ISS; scientific satellites like the Hubble; Earth observation satellites from companies like Planet Labs, Umbra, and HawkEye 360; GPS; miniature CubeSats for education and research; and military/defense satellites.

Loading next visibility...
Identifier
63744, 2025-088W
Orbit
LEO
Country
Flag of USUS
Related business
Manufacturer
Kuiper Systems
Mission
Operational Commercial Communications
Bus & Motor
KUIPER, Unknown motor
Mass
~490 kg wet, ~490 kg dry
Launch date (UTC)
2025-04-28 (8 months ago)
Launch vehicle
ATLAS V 551
Launch site
Air Force Eastern Test Range (AFETR)
Object type
Payload
Rocket body
Debris
Shape & HBR
Box + 2 Pan, 3.4 m
Radar Cross Section
2.326 m², Large (>1 m²)

Expand to show TLE details & history
Last TLE update: 1 day ago

TLE from 1 day ago
0 KUIPER-00031
1 63744U 25088W   25348.50348932 -.00000157  00000-0  85259-5 0  9991
2 63744  51.8992 113.3023 0004661 180.2478 179.8483 14.79972180 34926
Epoch: 2025-12-14T12:05Z
TLE epoch observation values (Epoch: 2025-12-14T12:05:01.477Z)
Latitude
0.00001°
Longitude
-151.36932°
Altitude
633.425 km
Speed
7.541 km/s
True Right ascension
07h 33m 12s
True Declination
0° 00' 00"
Sunlit
Object was in full shadow at epoch
Visualization orbit readout
Latitude
Unknown
Longitude
Unknown
Altitude
Unknown
Speed
Unknown
Apparent Right ascension
Unknown
Apparent Declination
Unknown
Sunlit
N/A
Visualization observer readout
Local Sidereal Time
13:18:21
Azimuth
Unknown
Elevation
Unknown
Doppler factor
Unknown
Orbital elements
Apogee altitude
633.13 km
Perigee altitude
626.597 km
Semi-major axis
7,008 km
Eccentricity
0.00047
Inclination
51.8992°
RAAN
113.3023°
Arg. of periapsis
180.2478°
True anomaly
179.84844°
Mean anomaly
179.8483°
Eccentric anomaly
179.84837°
Mean motion
3.69958 °/min
Orbital period
97.31 mins
BSTAR
0.0000085259
Loading maneuver chart data...
Computing Atmospheric mass density...
Loading historical data...
Loading historical data...
Loading historical data...
Loading historical data...
Loading historical data...
Loading historical data...
Loading historical data...

Documentation

Showing up to 5 results
|